EW9439 Weather Reports


time (UTC)temp
F
wind
direction
speed
knots
gust
knots
rain 1hr
in
rain 24hr
in
rain mn
in
humidity
%
barometer
mb
20220629034542 71 134 0.0 0.0 0.00 0.09 0.09 95 1018.3
20220629033029 71 134 0.0 0.0 0.00 0.09 0.09 95 1018.3
20220629031507 71 134 0.0 0.0 0.00 0.09 0.09 94 1018.3
20220629030009 71 134 0.0 0.0 0.00 0.09 0.09 94 1018.2
20220629024513 71 134 0.0 0.0 0.00 0.09 0.09 94 1018.1
20220629023032 71 134 0.0 0.0 0.00 0.09 0.09 94 1017.9
20220629021546 71 134 0.0 0.0 0.00 0.09 0.09 94 1017.7
20220629020048 71 134 0.0 0.0 0.00 0.09 0.09 93 1017.5
20220629014550 71 134 0.0 0.0 0.00 0.09 0.09 93 1017.2
20220629013030 71 137 0.0 0.0 0.00 0.09 0.09 94 1016.9
20220629011533 71 137 0.0 0.0 0.01 0.09 0.09 94 1016.9
20220629010031 71 312 0.0 0.0 0.01 0.10 0.09 94 1016.9
20220629004540 71 304 0.0 0.0 0.03 0.10 0.09 94 1016.8
20220629003041 72 304 0.0 0.0 0.04 0.10 0.09 94 1016.8
20220629001542 72 304 0.0 0.0 0.05 0.09 0.08 94 1016.8
20220629000042 72 304 0.0 0.0 0.07 0.09 0.08 94 1016.6
20220628234541 72 304 0.0 0.0 0.05 0.07 0.06 93 1016.8
20220628233042 73 304 0.0 0.0 0.04 0.06 0.05 92 1016.8
20220628231540 73 304 0.0 0.0 0.02 0.04 0.03 89 1016.5
20220628230039 74 304 0.0 0.0 0.00 0.02 0.01 88 1016.5
20220628224542 74 304 0.0 0.0 0.01 0.02 0.01 87 1016.6
20220628223047 75 304 0.0 0.0 0.01 0.02 0.01 87 1016.4
20220628221545 76 304 0.0 0.0 0.01 0.02 0.01 83 1016.1
20220628220044 77 304 0.0 0.0 0.01 0.02 0.01 80 1016.3
20220628214547 78 304 0.0 0.0 0.00 0.01 0.00 76 1016.2
20220628213049 78 225 0.0 0.0 0.00 0.01 0.00 77 1016.1
20220628211550 78 225 0.0 0.0 0.00 0.01 0.00 76 1016.1
20220628210050 79 225 0.0 0.0 0.00 0.01 0.00 75 1015.9
20220628204603 81 225 0.0 0.0 0.00 0.01 0.00 69 1015.8
20220628204501 81 225 0.0 0.0 0.00 0.01 0.00 69 1015.8
20220628203102 82 225 0.0 0.0 0.00 0.01 0.00 68 1016.2
20220628203002 81 225 0.0 0.0 0.00 0.01 0.00 68 1016.1
20220628201508 82 322 0.0 0.0 0.00 0.01 0.00 68 1016.0
20220628200007 82 272 0.0 0.0 0.00 0.01 0.00 67 1016.3
20220628194507 82 321 0.0 0.0 0.00 0.01 0.00 67 1016.2
20220628193013 83 346 0.0 1.7 0.00 0.01 0.00 67 1016.6
20220628191521 83 276 0.0 0.9 0.00 0.01 0.00 67 1016.5
20220628190034 82 169 0.0 0.0 0.00 0.01 0.00 67 1016.8
20220628184529 82 288 0.0 0.0 0.00 0.01 0.00 68 1016.8
20220628183025 82 338 0.0 0.0 0.00 0.01 0.00 68 1017.0
20220628181529 82 341 0.0 0.0 0.00 0.01 0.00 68 1017.2
20220628180036 82 196 0.0 0.0 0.00 0.01 0.00 67 1017.2
20220628174548 82 327 0.0 0.0 0.00 0.01 0.00 67 1017.2
20220628173035 82 337 0.0 0.0 0.00 0.01 0.00 67 1017.3
20220628171539 81 28 0.0 5.2 0.00 0.01 0.00 69 1017.5
20220628170039 81 169 0.0 0.0 0.00 0.01 0.00 69 1017.6
20220628164541 81 317 0.0 0.0 0.00 0.01 0.00 70 1017.5
20220628163023 81 327 0.0 0.0 0.00 0.01 0.00 70 1017.5
20220628161523 80 44 0.0 0.9 0.00 0.01 0.00 71 1017.6
20220628160021 79 327 0.0 1.7 0.00 0.01 0.00 72 1017.6
20220628154536 78 326 0.0 0.9 0.00 0.01 0.00 74 1017.7
20220628153011 76 344 0.0 0.9 0.00 0.01 0.00 78 1017.7
20220628151510 76 328 0.0 5.2 0.00 0.01 0.00 78 1017.7
20220628150014 76 343 0.0 0.9 0.00 0.01 0.00 79 1017.6
20220628144556 75 336 0.0 0.0 0.00 0.01 0.00 81 1017.6
20220628143057 75 277 0.0 0.9 0.00 0.01 0.00 83 1017.5
20220628141514 74 350 0.0 0.0 0.00 0.01 0.00 84 1017.4
20220628140018 74 248 0.0 0.0 0.00 0.01 0.00 85 1017.2
20220628134550 74 148 0.0 0.0 0.00 0.01 0.00 87 1017.1
20220628133053 74 355 0.0 0.9 0.00 0.01 0.00 87 1017.1
20220628131557 74 355 0.0 0.0 0.00 0.01 0.00 87 1017.1
20220628130006 73 343 0.0 0.0 0.00 0.01 0.00 88 1017.0
20220628124506 73 346 0.0 0.0 0.00 0.01 0.00 88 1016.8
20220628123008 72 336 0.0 0.0 0.00 0.01 0.00 90 1016.7
20220628121508 72 57 0.0 0.0 0.00 0.01 0.00 90 1016.4
20220628120022 71 126 0.0 3.5 0.00 0.01 0.00 91 1016.2
20220628114517 71 26 0.0 0.0 0.00 0.01 0.00 93 1015.9
20220628113014 70 24 0.0 0.0 0.00 0.01 0.00 93 1015.8
20220628111518 70 24 0.0 0.0 0.00 0.01 0.00 94 1015.8
20220628110020 70 24 0.0 0.0 0.00 0.01 0.00 94 1015.7
20220628104522 70 25 0.0 0.0 0.00 0.01 0.00 94 1015.6
20220628103020 70 25 0.0 0.0 0.00 0.01 0.00 94 1015.5
20220628101528 70 25 0.0 0.0 0.00 0.01 0.00 95 1015.3
20220628100022 69 25 0.0 0.0 0.00 0.01 0.00 95 1015.2
20220628094522 70 25 0.0 0.0 0.00 0.01 0.00 95 1015.0
20220628093028 70 25 0.0 0.0 0.00 0.01 0.00 95 1015.0
20220628091529 70 25 0.0 0.0 0.00 0.01 0.00 95 1014.9
20220628090032 70 25 0.0 0.0 0.00 0.01 0.00 95 1014.9
20220628084545 70 25 0.0 0.0 0.00 0.01 0.00 95 1014.8
20220628083037 70 25 0.0 0.0 0.00 0.01 0.00 95 1014.6
20220628081544 70 25 0.0 0.0 0.00 0.01 0.00 95 1014.6
20220628080042 70 25 0.0 0.0 0.00 0.01 0.00 95 1014.6
20220628074550 70 25 0.0 0.0 0.00 0.01 0.00 95 1014.5
20220628073058 70 25 0.0 0.0 0.00 0.01 0.00 95 1014.5
20220628071601 70 25 0.0 0.0 0.00 0.01 0.00 95 1014.4
20220628070059 70 25 0.0 0.0 0.00 0.01 0.00 95 1014.3
20220628070002 70 25 0.0 0.0 0.00 0.01 0.00 95 1014.4
20220628063016 71 25 0.0 0.0 0.00 0.01 0.00 95 1014.3
20220628061527 71 25 0.0 0.0 0.00 0.01 0.00 95 1014.4
20220628060015 71 25 0.0 0.0 0.00 0.01 0.00 95 1014.5
20220628054515 71 25 0.0 0.0 0.00 0.01 0.00 94 1014.5